Weather History for Modesto, CA

Change the Weather History Date:

Saturday, April 12, 2014

  Actual Average Record
Temperature  
Mean Temperature 64 °F -  
Max Temperature 78 °F 74 °F 92 °F (2008)
Min Temperature 50 °F 49 °F 35 °F (1945)
Degree Days  
Heating Degree Days 1 5  
Month to date heating degree days 64 67  
Since 1 July heating degree days 1923 2072  
Cooling Degree Days 0 1  
Month to date cooling degree days 20 8  
Year to date cooling degree days 20 13  
Growing Degree Days 14 (Base 50)    
Moisture  
Dew Point 48 °F    
Average Humidity 63    
Maximum Humidity 89    
Minimum Humidity 36    
Precipitation  
Precipitation 0.00 in 0.03 in 0.26 in (2012)
Month to date precipitation 0.59 0.45  
Year to date precipitation 5.14 7.48  
Since 1 July precipitation 6.63 11.84  
Snow  
Snow 0.00 in - - ()
Month to date snowfall 0.0  
Since 1 July snowfall 0.0  
Snow Depth -    
Sea Level Pressure  
Sea Level Pressure 29.84 in    
Wind  
Wind Speed 9 mph (NNW)    
Max Wind Speed 14 mph    
Max Gust Speed -    
Visibility 10 miles    
Events      
T = Trace of Precipitation, MM = Missing Value Source: NWS Daily Summary

Daily Weather History Graph

Daily Weather History Graph

Search for Another Location

Airport:

Trip Planner

Search our weather history database for the weather conditions in past years. The results will help you decide how hot, cold, wet, or windy it might be!

Date:

Astronomy

Apr. 12, 2014 Rise Set
Actual Time 6:32 AM PDT 7:36 PM PDT
Civil Twilight 6:06 AM PDT 8:03 PM PDT
Nautical Twilight 5:34 AM PDT 8:35 PM PDT
Astronomical Twilight 5:01 AM PDT 9:08 PM PDT
Moon 5:22 PM PDT (4/12) 4:59 AM PDT (4/12)
Length of Visible Light 13h 57m
Length of Day
13h 03m
Waxing Gibbous, 93% of the Moon is Illuminated
Apr 12
Waxing Gibbous
Apr 15
Full
Apr 22
Last Quarter
Apr 28
New
May 6
First Quarter

Hourly Weather History & Observations

Time (PDT) Temp. Dew Point Humidity Pressure Visibility Wind Dir Wind Speed Gust Speed Precip Events Conditions
12:53 AM 57.9 °F 50.0 °F 75% 29.84 in 10.0 mi North 10.4 mph - N/A   Clear
1:53 AM 55.9 °F 48.0 °F 75% 29.83 in 10.0 mi North 8.1 mph - N/A   Clear
2:53 AM 55.0 °F 48.0 °F 77% 29.83 in 10.0 mi NNW 8.1 mph - N/A   Clear
3:53 AM 54.0 °F 48.0 °F 80% 29.83 in 10.0 mi North 8.1 mph - N/A   Clear
4:53 AM 52.0 °F 48.0 °F 86% 29.82 in 10.0 mi North 9.2 mph - N/A   Clear
5:53 AM 51.1 °F 46.9 °F 86% 29.83 in 10.0 mi North 5.8 mph - N/A   Clear
6:53 AM 51.1 °F 46.9 °F 86% 29.84 in 8.0 mi North 5.8 mph - N/A   Clear
7:53 AM 53.1 °F 48.0 °F 83% 29.86 in 9.0 mi North 6.9 mph - N/A   Clear
8:53 AM 57.0 °F 48.0 °F 72% 29.87 in 10.0 mi North 9.2 mph - N/A   Clear
9:53 AM 61.0 °F 48.0 °F 62% 29.88 in 10.0 mi NW 9.2 mph - N/A   Clear
10:53 AM 64.0 °F 48.9 °F 58% 29.89 in 10.0 mi North 6.9 mph - N/A   Clear
11:53 AM 68.0 °F 48.9 °F 50% 29.87 in 10.0 mi NNW 9.2 mph - N/A   Clear
12:53 PM 69.1 °F 48.0 °F 47% 29.85 in 10.0 mi NNW 8.1 mph - N/A   Clear
1:53 PM 75.0 °F 48.0 °F 38% 29.84 in 10.0 mi NNW 12.7 mph - N/A   Clear
2:53 PM 77.0 °F 48.9 °F 37% 29.83 in 10.0 mi North 8.1 mph - N/A   Clear
3:53 PM 75.9 °F 48.9 °F 38% 29.81 in 10.0 mi NW 8.1 mph - N/A   Clear
4:53 PM 77.0 °F 51.1 °F 40% 29.79 in 10.0 mi NNW 9.2 mph - N/A   Clear
5:53 PM 75.9 °F 51.1 °F 42% 29.79 in 10.0 mi WNW 9.2 mph - N/A   Clear
6:53 PM 73.0 °F 48.9 °F 42% 29.80 in 10.0 mi NW 9.2 mph - N/A   Clear
7:53 PM 68.0 °F 48.9 °F 50% 29.82 in 10.0 mi NW 11.5 mph - N/A   Clear
8:53 PM 64.0 °F 46.9 °F 54% 29.84 in 10.0 mi NNW 10.4 mph - N/A   Clear
9:53 PM 59.0 °F 46.9 °F 64% 29.87 in 10.0 mi North 10.4 mph - N/A   Clear
10:53 PM 57.0 °F 48.0 °F 72% 29.88 in 10.0 mi NNW 8.1 mph - N/A   Clear
11:53 PM 55.0 °F 46.9 °F 74% 29.90 in 10.0 mi North 9.2 mph - N/A   Clear